CCA478 EHAM-ZBAD

Flight info

Callsign CCA478
Flight time N/A
Altitude 35000
Route ANDIK N873 HUNQI DCT ALS DCT EKRAL DCT EVONA P862 NETNA DCT TUKMA P989 MEGAS/K0876F350 P989 OBIBA P997 AKUGI T635 SADER T580 ADMUR G117 XV R229 BA R104 ABK A308 TR P982 DARNO/K0872S1065 Y746 NIXAL G343 TMR B458 PUKOL W64 ELAPU ELAPU5L
Aircraft A343/H-SDE2E3FGHIJ4J5M1RWXY/LB1D1

Departure

Time 2026-04-17 12:10
Airport Amsterdam Airport Schiphol (EHAM)

Arrival

Time N/A
Airport Beijing Daxing International Airport (ZBAD)
Time Latitude Longitude Altitude Speed Heading
2026-04-17 11:42 52.31300 4.76316 3 ft 0 kts 253°
2026-04-17 11:56 52.31303 4.76336 3 ft 4 kts 252°
2026-04-17 11:57 52.31312 4.76378 5 ft 4 kts 251°
2026-04-17 11:57 52.31319 4.76420 4 ft 4 kts 270°
2026-04-17 11:57 52.31315 4.76447 6 ft 2 kts 349°
2026-04-17 11:57 52.31321 4.76445 5 ft 4 kts 349°
2026-04-17 11:58 52.31347 4.76433 3 ft 4 kts 342°
2026-04-17 11:58 52.31372 4.76420 3 ft 3 kts 342°
2026-04-17 11:58 52.31375 4.76418 3 ft 0 kts 342°
2026-04-17 12:04 52.31379 4.76416 3 ft 2 kts 342°
2026-04-17 12:04 52.31413 4.76416 3 ft 8 kts 10°
2026-04-17 12:04 52.31460 4.76507 3 ft 13 kts 73°
2026-04-17 12:05 52.31469 4.76657 3 ft 13 kts 86°
2026-04-17 12:05 52.31475 4.76813 3 ft 15 kts 86°
2026-04-17 12:05 52.31481 4.77000 3 ft 17 kts 86°
2026-04-17 12:05 52.31462 4.77182 3 ft 17 kts 121°
2026-04-17 12:06 52.31391 4.77326 3 ft 16 kts 131°
2026-04-17 12:06 52.31311 4.77464 3 ft 16 kts 143°
2026-04-17 12:06 52.31206 4.77501 3 ft 15 kts 182°
2026-04-17 12:06 52.31096 4.77493 3 ft 17 kts 182°
2026-04-17 12:07 52.30961 4.77479 3 ft 22 kts 183°
2026-04-17 12:07 52.30811 4.77463 3 ft 21 kts 184°
2026-04-17 12:07 52.30685 4.77458 3 ft 16 kts 171°
2026-04-17 12:07 52.30588 4.77524 3 ft 15 kts 152°
2026-04-17 12:08 52.30500 4.77600 3 ft 14 kts 152°
2026-04-17 12:08 52.30442 4.77641 3 ft 6 kts 173°
2026-04-17 12:08 52.30399 4.77598 2 ft 10 kts 229°
2026-04-17 12:08 52.30350 4.77469 1 ft 20 kts 238°
2026-04-17 12:09 52.30210 4.77107 1 ft 62 kts 238°
2026-04-17 12:09 52.29895 4.76285 0 ft 108 kts 238°
2026-04-17 12:09 52.29427 4.75066 3 ft 145 kts 238°
2026-04-17 12:09 52.28879 4.73605 314 ft 151 kts 236°
2026-04-17 12:10 52.28175 4.72327 662 ft 157 kts 214°
2026-04-17 12:10 52.27154 4.71674 1158 ft 158 kts 195°
2026-04-17 12:10 52.26007 4.71571 1463 ft 177 kts 172°
2026-04-17 12:10 52.24810 4.72364 1788 ft 195 kts 153°
2026-04-17 12:11 52.23607 4.73606 2070 ft 217 kts 150°
2026-04-17 12:11 52.22286 4.75033 2435 ft 236 kts 149°
2026-04-17 12:11 52.20961 4.76675 3077 ft 244 kts 137°
2026-04-17 12:12 52.19062 4.81446 4520 ft 256 kts 123°
2026-04-17 12:12 52.18333 4.84135 5211 ft 265 kts 107°
2026-04-17 12:12 52.18321 4.87168 5872 ft 276 kts 76°
2026-04-17 12:12 52.19266 4.89905 6575 ft 284 kts 47°
2026-04-17 12:13 52.20751 4.92072 7248 ft 288 kts 39°
2026-04-17 12:13 52.22313 4.94123 7933 ft 290 kts 39°
2026-04-17 12:13 52.23892 4.96206 8574 ft 294 kts 39°
2026-04-17 12:13 52.25486 4.98336 9188 ft 299 kts 39°
2026-04-17 12:14 52.27104 5.00518 9767 ft 304 kts 39°
2026-04-17 12:14 52.28745 5.02742 10332 ft 309 kts 39°
2026-04-17 12:14 52.30431 5.05037 10641 ft 323 kts 39°
2026-04-17 12:14 52.32204 5.07432 10891 ft 338 kts 37°
2026-04-17 12:15 52.34226 5.09418 11116 ft 350 kts 20°
2026-04-17 12:15 52.36589 5.10649 11364 ft 362 kts 13°
2026-04-17 12:15 52.39067 5.11711 11612 ft 375 kts 12°
2026-04-17 12:15 52.41639 5.12806 11876 ft 387 kts 13°
2026-04-17 12:16 52.44276 5.13944 12308 ft 394 kts 13°
2026-04-17 12:16 52.46939 5.15104 12831 ft 398 kts 13°
2026-04-17 12:16 52.49629 5.16281 13374 ft 402 kts 13°
2026-04-17 12:16 52.52342 5.17473 13927 ft 405 kts 13°
2026-04-17 12:17 52.55078 5.18677 14421 ft 409 kts 13°
2026-04-17 12:17 52.57836 5.19893 14931 ft 412 kts 13°
2026-04-17 12:17 52.60619 5.21122 15430 ft 415 kts 13°
2026-04-17 12:17 52.63415 5.22358 15931 ft 418 kts 12°
2026-04-17 12:18 52.66232 5.23606 16442 ft 421 kts 12°
2026-04-17 12:18 52.69071 5.24865 16954 ft 423 kts 12°
2026-04-17 12:18 52.71882 5.26392 17433 ft 429 kts 21°
2026-04-17 12:18 52.74456 5.28927 17909 ft 435 kts 38°
2026-04-17 12:19 52.76609 5.32386 18410 ft 440 kts 47°
2026-04-17 12:19 52.78595 5.36243 18823 ft 443 kts 50°
2026-04-17 12:19 52.80493 5.40278 19243 ft 446 kts 52°
2026-04-17 12:19 52.82363 5.44404 19650 ft 450 kts 52°
2026-04-17 12:20 52.84237 5.48559 20066 ft 452 kts 52°